Tri Cities Regional Tn Va Airport
KTRI : now visible

Airfield :











YOU CAN JOIN US ON...

 
LOGIN :

Register | Disclaimer

   EN    FR    IT 

 









Legend :    VFR   Marginal VFR   IFR   Intensive IFR   Very Intensive IFR
Visi :
Ceiling :
>= 8 km
>= 3000ft
5 to 8 km
1000 to 3000 ft
1500m to 5 km
500 to 1000 ft
800 to 1500m
200 to 500 ft
< 800m
< 200 ft
Symbols :   Thunderstorms  Fog  Heavy snow  Heavy precipitations  Wind > 20 kt






- Airport Elevation : 1519 ft
- IATA code : TRI


KTRI - Tri Cities Regional Tn Va

CURRENT METAR :
  • 041453Z 00000KT 10SM FEW180 SCT250 15/06 A3008 RMK AO2 SLP174 T01500061 51011

EXPIRED METARs :
  • 041353Z 00000KT 10SM FEW200 SCT250 11/05 A3008 RMK AO2 SLP175 T01060050
  • 041253Z 00000KT 10SM FEW180 BKN250 08/04 A3006 RMK AO2 SLP168 T00830044

TAF KTRI
Valid from the 04 at 12:00 until the 05 at 12:00 UTC


041122Z 0412/0512 VRB03KT P6SM SCT200



MET'MAP, your aeronautical weather chart ! - Copyright ORBIFLY December 2007 - Disclaimer

ORBIFLY MET'MAP TEAM :

Programming & Development : Alexandra Zaïnal
Concept & original design : Baudouin d'Aumeries
Assistance for programming : Marc-Olivier Méhu
Technical & hardware support : Manuel Goepfert

Contact : metmap@orbifly.com




SOURCES & CREDITS :

   NOAA       Earth
Advisory